Location: Castifao
(42.5040°N, 9.1124°E)
Time: 21:51:49
(UTC+00:00)

NOAA 11 - Pass Details

Date: 23 January 2020
Orbit: 832 x 850 km, 98.4° (Epoch: 20 February)

Event Time Altitude Azimuth Distance (km) Brightness Sun altitude
Rises 18:05:19 0° 167° (SSE) 3,400 7.3 -18.4°
Reaches altitude 10° 18:07:41 10° 169° (SSE) 2,468 6.6 -18.8°
Maximum altitude 18:13:10 81° 257° (WSW) 863 4.3 -19.8°
Drops below altitude 10° 18:18:41 10° 345° (NNW) 2,477 6.7 -20.8°
Sets 18:21:04 0° 346° (NNW) 3,414 7.4 -21.3°
